ONEWEB-0098, 45442

Orbit data source: Space-Track

ONEWEB-0098, 45442 is a payload satellite owned by One Web (UK) in LEO that was launched on Sat, 21 Mar 2020 UTC via a SOYUZ-2-1B launch vehicle from the Tyuratam Missile And Space Complex (TTMTR). Payload-class satellites include a variety of spacecraft equipped with specific instruments for various scientific and technological missions. These include communications satellites like Starlink; space stations such as the ISS; scientific satellites like the Hubble; Earth observation satellites from companies like Planet Labs, Umbra, and HawkEye 360; GPS; miniature CubeSats for education and research; and military/defense satellites.

Loading next visibility...
Identifier
45442, 2020-020U
Orbit
LEO
Country
Flag of UKUK
Related business
Manufacturer
One Web
Mission
Operational Commercial Communications
Bus & Motor
ARROW, Unknown motor
Mass
148 kg wet, ~140 kg dry
Launch date (UTC)
2020-03-21 (6 years ago)
Launch vehicle
SOYUZ-2-1B
Launch site
Tyuratam Missile And Space Complex (TTMTR)
Object type
Payload
Rocket body
Debris
Shape & HBR
Trap Box + 2 Pan, 6.7 m
Radar Cross Section
3.464 m², Large (>1 m²)

Expand to show TLE details & history
Last TLE update: 9 hours ago

TLE from 9 hours ago
0 ONEWEB-0098
1 45442U 20020U   26254.79184636 -.00000521  00000-0 -15072-2 0  9993
2 45442  87.8959   3.8504 0001761  98.7049 261.4278 13.11417333313991
Epoch: 2026-09-11T19:00Z
TLE epoch observation values (Epoch: 2026-09-11T19:00:15.525Z)
Latitude
-0.00007°
Longitude
87.97559°
Altitude
1,220.77 km
Speed
7.244 km/s
True Right ascension
00h 15m 24s
True Declination
0° 00' 00"
Sunlit
Object was in full shadow at epoch
Visualization orbit readout
Latitude
Unknown
Longitude
Unknown
Altitude
Unknown
Speed
Unknown
Apparent Right ascension
Unknown
Apparent Declination
Unknown
Sunlit
N/A
Visualization observer readout
Local Sidereal Time
20:52:51
Azimuth
Unknown
Elevation
Unknown
Doppler factor
Unknown
Orbital elements
Apogee altitude
1,216.136 km
Perigee altitude
1,213.462 km
Semi-major axis
7,592.936 km
Eccentricity
0.00018
Inclination
87.8959°
RAAN
3.8504°
Arg. of periapsis
98.7049°
True anomaly
261.40785°
Mean anomaly
261.4278°
Eccentric anomaly
261.41782°
Mean motion
3.28041 °/min
Orbital period
109.74 mins
BSTAR
-0.0015072
Loading maneuver chart data...
Computing Atmospheric mass density...
Loading historical data...
Loading historical data...
Loading historical data...
Loading historical data...
Loading historical data...
Loading historical data...
Loading historical data...

Documentation

Showing up to 5 results
|